Regional Weather Roundup
Issued by NWS

Home | Current Version | Previous Version | Text Only | Print | Product List | Glossary Off
Versions: 1 2 3 4 5 6 7 8 9 10 11 12 13 14 15 16 17 18 19 20 21 22 23 24 25 26 27 28 29 30 31 32 33 34 35 36 37 38 39 40 41 42 43 44 45 46 47 48 49 50

000
ASUS43 KTOP 230059
RWRKS

WEATHER ROUNDUP FOR KANSAS
NATIONAL WEATHER SERVICE GOODLAND KS
800 PM CDT FRI MAY 22 2015

NOTE:  "FAIR" INDICATES FEW OR NO CLOUDS BELOW 12,000 FEET WITH NO
SIGNIFICANT WEATHER AND/OR OBSTRUCTIONS TO VISIBILITY.

KSZ001>006-013>018-027>032-041>047-230200-
NORTHWEST KANSAS

CITY           SKY/WX    TMP DP  RH WIND       PRES   REMARKS
GOODLAND       CLOUDY    54  52  93 SE15G24   30.00S
HAYS           CLOUDY    55  48  76 SE15      30.09S
HILL CITY      CLOUDY    54  53  97 E10       30.08S FOG
RUSSELL        CLOUDY    56  55  97 S12       30.09S FOG
$$

KSZ061>065-074>080-084>089-230200-
SOUTHWEST KANSAS

CITY           SKY/WX    TMP DP  RH WIND       PRES   REMARKS
DODGE CITY     CLOUDY    56  53  90 SE15      30.06F FOG
ELKHART          N/A     65  52  63 S17         N/A
GARDEN CITY    CLOUDY    56  54  93 SE18      30.01S
GREAT BEND     CLOUDY    55  52  88 SE13      30.10S
LIBERAL        MOCLDY    63  55  77 S17G23    30.02S
$$

KSZ066>073-081>083-090>101-230200-
SOUTHEAST KANSAS

CITY           SKY/WX    TMP DP  RH WIND       PRES   REMARKS
CHANUTE        CLOUDY    61  50  67 E5        30.17S
COFFEYVILLE    CLOUDY    63  55  75 CALM      30.16S
HUTCHINSON     LGT RAIN  58  54  86 SE9       30.12S FOG
NEWTON         CLOUDY    57  48  72 SE12      30.16R
PARSONS        CLOUDY    63  53  70 CALM      30.18S
WICHITA INTL   CLOUDY    60  52  74 SE14      30.12S
WICHITA JABRA  CLOUDY    58  52  80 SE9       30.13R
WINFIELD       CLOUDY    57  55  93 SE5       30.15S
$$

KSZ007>012-019>026-033>040-048>060-102>105-230200-
NORTHEAST KANSAS

CITY           SKY/WX    TMP DP  RH WIND       PRES   REMARKS
CONCORDIA      CLOUDY    58  51  78 SE7       30.14S
EMPORIA        CLOUDY    60  48  64 E10       30.16F
LAWRENCE       CLOUDY    62  51  67 SE6       30.19S
MANHATTAN      CLOUDY    62  47  57 SE9       30.15S
OLATHE IND     CLOUDY    62  51  67 E9        30.19F
OLATHE EXE     CLOUDY    62  51  67 E7        30.18F
SALINA         CLOUDY    60  53  77 S10       30.14R
TOPEKA BILLARD CLOUDY    62  48  60 E8        30.18F
TOPEKA FORBES  CLOUDY    62  48  60 SE6       30.18S
$$


USA.gov is the U.S. government's official web portal to all federal, state and local government web resources and services.